Lapse_Rate
5.2 1.6 -0.0 0.5 1.0 1.2 1.6 2.3 2.9 3.2 3.2 3.2 3.1 3.2 3.3 3.5 3.6 3.6 3.8 4.4 4.8 5.2 5.5 5.5 5.5 5.8 5.7 5.6 5.8 5.2 4.8 5.0 5.3 5.6 5.5 5.3 5.9 6.0 6.0 6.0 6.1 5.6 5.4
4.7 2.4 -0.1 0.3 0.8 1.1 1.4 2.2 2.8 3.0 3.3 3.4 3.4 3.4 3.5 3.6 3.7 3.8 4.2 4.7 5.3 5.5 5.8 5.7 5.8 5.8 5.6 5.1 4.7 4.6 4.6 4.7 5.0 5.2 5.4 5.9 6.2 6.7 6.5 6.3 5.3 5.3 5.3
4.5 1.5 0.7 -0.1 0.5 1.3 1.8 2.5 2.7 2.9 3.1 3.1 3.4 3.6 3.7 3.8 3.8 4.1 4.5 4.9 5.7 6.1 6.3 6.5 6.4 5.9 5.0 4.6 4.5 4.4 4.6 4.8 5.1 5.9 6.4 6.4 5.8 5.9 5.8 5.3 5.2 5.4 5.6
4.5 2.6 1.2 -0.1 0.9 1.6 1.9 2.5 2.7 3.0 3.1 3.2 3.5 3.7 3.9 4.1 4.4 4.7 4.7 5.1 6.0 6.4 6.8 6.6 6.3 5.8 5.1 4.5 4.5 4.5 4.9 5.5 5.9 6.7 7.1 6.5 6.4 6.0 6.0 5.6 5.6 5.7 5.6
5.7 4.7 1.9 0.2 0.8 1.6 2.2 2.5 2.7 3.0 3.2 3.3 3.6 3.9 4.1 4.5 5.0 5.0 4.9 5.5 6.0 6.0 6.0 6.2 5.9 5.3 4.7 4.5 4.6 4.8 5.4 6.1 6.6 7.3 6.9 6.6 6.4 6.1 6.1 5.8 5.8 6.0 5.9
8.6 6.1 -0.8 -0.1 0.6 1.4 2.0 2.6 2.9 3.1 3.3 3.2 3.5 4.1 4.4 4.9 5.6 5.1 5.2 5.3 5.6 5.8 5.6 5.6 5.3 4.1 4.3 4.2 4.5 5.1 5.7 6.3 6.5 7.3 6.9 6.8 6.3 6.2 6.5 5.9 5.5 5.8 5.6
6.5 2.4 0.8 -0.0 0.6 1.3 2.0 2.4 2.9 3.1 3.2 3.3 3.5 4.0 4.5 5.0 5.3 5.2 5.2 5.2 5.7 5.7 5.7 5.6 4.8 4.1 4.0 4.0 4.7 5.3 5.9 6.5 7.1 7.0 6.8 6.2 5.8 6.4 6.1 5.9 5.6 5.5 5.7
5.1 3.2 0.9 -0.0 0.4 1.1 2.0 2.4 2.7 3.0 3.3 3.9 4.4 4.1 4.5 5.1 5.2 5.3 5.3 5.3 5.5 5.7 5.7 5.4 4.1 3.8 4.0 4.4 4.9 5.3 5.9 5.9 6.2 6.9 7.2 5.9 5.5 6.1 6.2 6.1 5.8 5.9 5.9
6.4 2.6 1.4 1.2 0.8 0.9 1.8 2.3 2.8 3.2 3.5 4.4 4.8 4.6 5.0 5.4 5.4 5.4 5.3 5.4 5.3 5.7 6.0 5.2 4.2 4.8 4.1 4.4 4.7 5.3 5.7 4.6 5.5 5.7 6.8 5.1 5.6 6.0 6.4 6.2 6.4 6.5 7.0
6.3 3.6 2.1 2.1 1.7 1.7 1.7 2.2 2.8 3.1 3.5 3.9 4.6 4.6 4.9 5.3 5.4 5.5 5.4 5.3 5.2 5.7 5.8 6.1 4.6 3.9 3.7 3.9 3.7 4.0 4.5 4.9 5.7 6.0 6.4 5.3 5.3 6.2 6.8 7.3 7.3 7.4 7.4
7.0 5.0 3.6 3.2 3.0 3.0 3.1 2.6 2.1 2.9 3.5 4.0 4.1 4.3 4.6 5.4 5.2 5.3 5.8 5.3 5.0 5.5 5.6 5.9 4.0 3.9 4.4 4.0 4.1 5.0 4.3 5.0 6.1 7.8 6.2 5.3 5.5 6.1 7.2 7.4 7.3 7.5 7.5
7.7 7.0 5.9 5.6 4.6 4.6 4.9 2.8 3.6 3.7 4.0 4.4 5.1 4.8 5.2 6.0 6.0 7.0 6.7 5.3 5.1 5.6 5.9 4.8 4.1 4.2 3.9 3.2 3.3 3.7 4.2 5.8 6.4 6.5 5.6 5.3 5.7 6.3 7.0 7.5 7.4 7.7 7.3
7.9 8.0 8.1 7.3 7.5 7.5 6.1 4.3 4.7 4.4 4.8 5.2 6.0 6.3 5.9 6.9 6.6 6.3 6.5 5.4 5.5 5.1 5.2 4.6 4.4 4.8 4.2 3.9 4.1 4.5 4.8 6.2 6.8 5.8 5.7 6.0 5.9 6.5 6.9 7.6 7.9 7.7 7.2
7.8 8.0 8.3 7.8 7.6 7.0 6.6 6.8 6.9 7.2 6.4 5.9 6.9 6.7 5.7 5.7 5.4 5.9 6.0 6.2 6.3 6.3 5.9 6.3 5.6 5.0 4.0 4.2 4.5 5.5 5.7 7.4 6.4 6.3 5.3 5.8 6.3 6.8 6.9 7.5 7.7 7.3 8.0
7.4 7.2 7.5 7.8 7.4 7.5 7.4 7.3 5.8 5.8 6.8 7.0 6.7 6.7 5.8 5.4 5.2 5.4 5.6 6.3 6.5 6.5 5.8 5.6 5.4 4.3 3.7 4.0 4.2 5.5 6.5 6.6 6.8 5.9 5.2 5.8 6.2 6.6 7.5 7.3 8.0 7.7 7.6
7.2 6.8 6.3 7.4 6.9 7.7 7.4 7.3 6.4 5.7 5.7 5.3 6.5 6.9 6.7 5.7 5.2 5.3 5.2 5.1 6.0 5.9 6.0 5.3 4.8 3.9 3.8 4.2 4.8 4.8 5.2 7.3 6.6 6.4 5.4 5.2 6.0 6.7 7.4 7.5 7.8 7.6 7.6
7.3 7.0 5.8 5.6 6.7 7.2 7.5 7.1 6.7 5.7 4.9 4.3 4.4 7.4 6.4 6.9 5.7 5.5 5.5 5.6 5.3 5.2 5.5 5.2 5.1 4.6 4.3 4.4 5.1 5.1 4.9 5.9 7.0 7.3 5.7 5.1 6.0 7.0 7.3 7.4 7.7 7.6 7.5
7.7 7.1 6.2 5.6 5.4 6.3 7.5 7.6 7.5 7.5 6.0 4.1 3.6 4.3 7.1 6.5 6.3 5.4 5.7 5.3 5.2 5.4 5.0 4.4 4.8 4.8 4.4 4.2 4.2 4.5 5.3 6.1 7.4 6.9 6.0 5.8 6.0 6.8 7.1 7.2 7.0 7.2 7.4
7.5 6.5 5.5 4.2 4.2 4.7 7.1 7.8 7.5 7.2 6.8 5.3 4.0 3.5 5.7 6.3 6.4 5.2 5.6 5.5 6.1 5.1 4.7 5.0 4.9 4.9 4.6 4.3 4.9 4.9 5.1 7.1 6.5 7.0 6.4 6.5 6.5 6.8 6.7 7.1 7.1 6.9 7.0
7.2 5.7 5.2 4.6 4.1 3.6 6.5 7.9 7.9 7.1 6.8 6.9 5.9 4.7 5.1 5.8 6.7 6.0 5.6 5.9 6.2 5.6 4.8 4.6 4.7 4.8 5.0 5.3 5.3 5.3 4.8 6.7 7.2 6.7 6.8 7.0 7.1 7.4 7.4 6.5 6.4 6.5 6.9
5.4 5.1 4.8 5.8 4.4 4.0 6.1 7.8 7.9 7.4 6.5 6.3 7.0 6.3 4.8 5.7 6.2 6.0 5.5 6.1 5.5 5.0 5.0 4.0 5.1 5.3 5.6 5.5 5.0 4.9 5.3 5.4 5.6 6.4 6.1 7.0 6.6 7.0 7.3 6.7 6.3 6.7 6.4
5.4 5.7 5.9 6.5 5.4 4.7 6.0 7.7 8.2 7.7 5.3 4.7 3.9 4.7 5.4 5.6 6.5 6.0 5.4 5.0 4.4 3.7 3.4 3.6 4.2 5.2 4.8 4.9 5.5 5.1 5.6 5.9 5.3 5.7 6.1 7.1 6.8 6.8 7.3 7.4 7.1 7.2 6.5
5.4 5.3 6.0 6.5 6.5 5.5 5.3 7.1 8.1 5.5 4.5 4.7 4.2 4.2 4.5 5.9 6.5 6.1 5.2 4.9 3.8 3.3 2.8 2.8 3.8 4.9 4.5 4.9 4.9 5.5 5.7 5.8 5.6 5.6 5.6 5.9 7.1 6.7 6.6 7.2 7.5 7.8 7.4
5.9 5.5 5.6 6.0 6.6 6.8 5.2 6.7 7.1 5.7 4.4 4.3 4.9 4.5 4.9 4.6 5.9 5.6 5.8 4.8 3.7 3.1 2.6 2.7 4.4 4.7 4.7 4.9 4.8 5.8 5.6 5.2 5.5 5.9 6.1 5.5 6.5 7.6 5.9 6.5 7.1 7.2 8.4
6.5 5.8 5.2 6.1 7.3 7.1 5.6 6.3 7.0 7.2 6.2 4.8 6.5 5.4 5.4 5.1 5.0 6.8 5.6 5.0 3.5 3.4 2.9 2.9 4.3 4.7 4.6 5.1 5.2 4.7 4.2 4.3 4.9 5.4 5.9 5.7 5.5 6.0 6.4 6.8 7.2 7.1 7.8
7.2 6.4 5.6 5.7 7.0 7.2 6.4 5.2 7.4 7.3 7.4 7.1 6.9 5.8 5.1 5.9 5.9 6.5 6.1 5.3 3.9 3.8 3.3 3.1 4.4 4.9 5.2 4.7 4.6 4.6 4.7 4.4 4.6 5.7 6.5 5.3 5.1 5.3 5.6 5.7 5.8 7.2 7.8
Wind_Speed
13 16 19 16 14 14 14 14 15 14 14 14 13 14 15 13 12 13 13 13 15 15 16 14 12 12 12 11 13 18 19 20 21 21 23 25 24 23 20 23 24 22 22
17 18 18 16 15 14 13 13 14 15 15 15 14 14 15 15 14 12 13 13 13 16 16 14 13 13 13 12 15 16 17 20 20 22 24 21 19 21 19 25 24 22 23
16 18 18 16 15 14 13 12 13 15 17 17 16 15 16 16 16 14 13 12 12 12 15 16 12 14 14 13 16 17 17 18 20 22 22 18 18 23 26 27 23 24 24
16 15 17 16 15 13 13 12 14 16 17 18 17 17 17 16 15 16 14 13 14 12 11 11 12 14 12 15 16 16 17 18 20 19 15 18 19 24 26 25 24 25 24
16 15 18 16 15 13 13 12 14 16 17 17 17 17 17 17 18 16 15 14 15 13 13 15 14 15 16 17 17 17 18 19 18 13 16 19 17 22 24 23 23 22 22
15 15 21 17 15 14 13 12 14 15 17 16 17 17 17 18 18 18 18 16 16 15 16 16 17 21 19 19 18 18 19 19 16 16 16 21 18 20 21 21 24 22 21
14 15 18 18 15 14 13 13 14 14 15 15 15 17 16 17 17 18 20 18 16 15 15 16 18 18 21 19 19 19 19 19 9 17 19 18 19 19 22 23 24 22 22
15 13 15 15 14 14 13 13 13 14 14 15 15 17 17 16 18 19 18 18 16 15 16 15 20 22 19 17 17 21 21 18 8 6 16 17 25 22 20 23 23 22 21
10 13 11 13 13 12 13 14 14 14 14 14 15 18 19 18 17 17 17 16 17 14 14 14 17 17 15 13 11 18 21 7 3 13 10 17 22 23 21 22 22 22 21
8 11 11 11 12 11 10 12 14 14 14 14 15 14 13 17 17 16 17 15 16 15 13 14 15 19 19 13 3 10 14 6 2 17 18 19 24 24 23 22 21 20 21
9 9 11 11 11 13 13 12 11 12 13 13 11 10 11 12 13 15 15 16 14 13 11 13 21 21 19 15 11 11 9 12 15 12 16 24 25 24 23 22 20 19 21
12 12 11 11 12 10 10 14 12 11 10 10 11 11 10 12 14 16 16 15 15 11 13 17 22 23 17 11 9 11 11 10 13 13 14 23 24 22 22 20 20 19 20
14 10 12 10 11 10 7 9 9 10 10 12 14 12 12 11 11 13 11 11 10 13 11 15 17 13 11 10 9 8 13 14 14 13 20 23 24 21 21 20 19 19 18
17 15 13 13 9 10 7 8 6 7 8 5 10 11 7 3 4 5 5 10 10 12 10 13 11 11 11 12 12 12 19 14 11 14 19 26 24 21 19 20 19 19 18
16 17 15 14 11 11 7 7 6 3 4 5 10 12 11 4 4 5 5 6 7 10 8 6 10 9 10 10 11 11 16 14 13 14 19 26 25 21 20 19 20 19 19
10 17 17 15 13 11 9 7 7 7 5 5 4 10 13 9 4 5 4 5 5 10 11 9 7 6 6 8 7 12 15 17 15 15 15 20 25 23 22 21 21 20 19
10 11 18 17 14 12 11 7 6 6 6 4 5 11 13 12 8 5 4 4 5 10 10 9 8 9 6 6 8 9 14 14 16 19 19 17 21 24 22 21 22 22 20
13 10 18 16 15 13 11 8 8 8 8 7 5 6 10 10 11 5 5 4 7 7 5 4 6 6 7 7 6 7 8 11 17 19 19 19 17 16 19 21 23 22 21
11 10 20 18 18 16 11 9 8 7 8 8 9 8 10 12 11 5 6 6 10 4 5 6 6 7 6 7 6 10 6 8 10 16 15 19 20 17 15 21 23 22 22
11 8 19 17 18 16 10 8 8 5 5 6 8 8 12 11 10 6 4 5 8 5 5 6 7 7 8 7 7 7 4 4 8 9 11 17 18 19 19 19 19 19 24
8 9 13 17 17 14 11 11 9 9 5 3 4 11 10 11 13 7 5 5 4 4 6 7 5 8 6 8 5 5 1 4 5 10 8 10 10 15 14 19 17 15 17
9 7 7 16 17 14 11 9 8 7 6 6 3 4 6 10 8 8 6 6 6 4 6 8 7 4 3 8 7 4 3 3 4 4 4 5 11 14 13 18 18 18 18
9 8 8 9 17 15 12 7 7 7 7 7 9 8 9 6 7 6 10 8 8 6 6 7 8 6 3 6 12 3 3 3 4 2 3 2 5 7 10 14 16 17 20
6 8 11 11 13 15 16 13 16 10 10 7 7 8 7 9 6 6 10 10 9 7 8 7 7 6 4 8 4 1 2 6 4 3 2 3 3 3 6 10 15 17 18
9 7 7 13 15 17 19 16 13 10 8 8 7 12 8 10 8 8 10 11 10 7 8 9 9 6 5 6 4 3 4 4 3 3 3 3 2 3 3 9 13 16 18
8 11 8 10 15 16 20 20 16 14 12 10 11 9 9 6 7 8 12 10 11 10 10 9 9 9 8 5 5 5 5 3 4 4 4 7 9 5 4 3 4 8 15
Wind_Direction
121 135 130 133 131 132 136 144 154 155 149 144 141 135 130 123 115 114 111 110 112 117 122 124 124 113 99 97 99 98 97 100 102 104 100 99 109 111 110 106 99 101 99
126 131 128 134 135 136 139 151 162 159 152 147 145 143 135 132 131 126 123 124 130 135 135 131 124 119 107 102 96 97 100 102 104 104 101 102 106 111 113 99 102 103 102
117 125 137 137 141 145 147 152 159 159 156 153 152 149 144 143 140 137 143 143 145 145 144 136 135 125 126 119 114 112 110 112 115 117 117 109 103 109 103 101 105 103 104
122 138 140 147 147 144 138 146 150 158 159 159 156 154 152 150 148 149 157 156 153 149 147 136 133 132 129 123 123 123 125 131 132 131 111 116 115 111 109 108 108 106 101
127 145 142 148 142 139 137 140 147 156 159 161 159 160 157 155 159 156 159 165 157 152 153 151 155 144 132 134 136 139 144 146 148 134 134 120 120 121 117 115 113 111 109
132 126 141 144 141 140 137 139 147 152 158 159 160 161 162 166 166 165 165 169 162 165 159 163 156 143 146 147 149 155 158 161 162 131 130 128 118 123 122 113 105 104 104
101 117 140 145 145 141 143 140 143 151 158 160 160 164 169 172 167 174 174 172 172 173 164 163 148 148 153 153 159 166 173 177 170 141 135 120 121 123 120 114 110 109 110
118 126 134 144 147 145 147 144 148 156 163 173 177 173 174 178 172 177 178 176 177 176 173 164 154 155 154 157 171 178 188 187 185 107 125 125 132 130 126 121 117 116 116
114 121 135 153 152 155 161 158 158 162 163 178 182 184 184 189 181 176 178 181 176 181 175 162 153 155 132 146 178 200 200 182 330 135 139 126 133 131 132 128 127 128 124
126 127 140 155 157 163 163 171 170 169 171 181 187 193 199 188 180 170 176 175 168 180 183 183 144 130 129 130 154 279 233 211 233 149 151 143 135 132 136 133 135 129 123
154 154 151 162 164 167 168 174 178 179 177 187 188 197 195 185 178 175 183 181 176 174 179 164 137 137 141 155 170 251 282 271 147 121 136 143 131 136 137 135 133 125 127
172 169 165 172 167 172 169 152 181 183 186 191 193 178 197 194 181 190 194 187 182 189 189 152 144 144 138 147 167 199 235 266 128 109 131 133 135 140 138 139 136 140 138
178 177 173 177 166 168 163 167 180 180 192 190 194 188 189 195 197 204 180 186 184 192 177 147 142 147 147 149 156 201 241 244 146 130 144 142 136 142 141 141 144 147 144
181 179 177 171 163 171 177 170 186 181 183 182 188 176 179 203 181 202 178 187 186 175 180 163 161 150 154 163 180 214 229 213 151 139 158 148 144 149 150 152 153 151 151
182 175 174 169 174 176 196 166 170 215 169 176 161 176 183 197 185 188 194 173 186 171 167 153 157 158 170 172 200 221 237 203 158 144 157 157 148 153 162 159 160 156 157
208 178 169 171 172 176 188 167 171 179 148 176 193 169 184 181 177 194 184 185 169 169 169 161 162 166 176 178 204 230 247 188 145 147 156 156 154 160 165 164 164 163 164
217 180 168 167 162 175 180 179 162 163 172 181 186 189 184 188 178 185 188 190 160 164 160 173 168 168 175 189 206 217 241 172 164 161 158 151 159 166 171 172 169 166 166
209 212 164 162 167 170 184 181 183 177 170 172 163 198 200 192 191 171 178 184 184 163 169 174 169 174 189 195 193 216 235 192 157 154 151 154 159 171 179 174 168 166 167
227 203 161 164 168 176 190 190 185 178 156 163 173 178 193 196 209 173 187 192 188 175 170 171 176 179 185 186 190 210 221 200 166 151 149 156 163 166 171 179 173 170 172
228 222 164 163 167 170 187 192 190 176 169 160 164 171 173 198 204 195 181 184 189 162 158 175 184 194 193 188 184 185 228 214 162 154 158 161 167 165 169 165 174 178 181
234 215 163 165 166 160 183 195 194 185 160 149 168 172 169 185 198 196 182 182 142 161 163 173 181 192 209 188 159 145 101 341 104 140 147 152 147 164 160 165 169 177 192
228 203 163 165 165 168 180 197 203 173 163 165 166 223 193 184 184 183 152 147 142 154 164 177 184 178 192 174 155 107 143 49 28 99 127 159 172 169 167 169 178 180 182
205 186 173 174 166 172 172 197 211 122 141 180 188 199 204 194 164 156 150 151 154 167 174 176 174 168 148 158 149 128 145 154 125 37 167 170 181 171 168 169 187 191 184
252 187 183 185 176 177 164 190 216 176 171 187 181 189 189 194 182 160 149 157 158 169 168 173 170 154 135 158 142 130 61 128 133 133 231 243 203 205 179 183 190 203 209
303 289 205 191 189 178 176 192 209 189 181 171 190 178 193 183 177 157 156 157 164 172 169 169 172 166 155 168 170 127 67 67 63 125 150 204 242 236 245 183 194 201 211
281 288 258 208 194 188 176 191 204 198 179 173 179 171 187 189 166 176 165 172 168 182 174 169 168 164 171 161 157 147 162 143 181 195 190 184 201 207 220 260 204 185 196